Total_Precipitation_Accumulation
1.87 2.09 2.39 2.85 3.61 4.34 5.01 5.11 5.27 4.74 4.07 3.49 3.05 2.92 2.68 2.39 2.33 2.19 2.02 1.86 1.68 1.59 1.73 1.54 1.49 1.40 1.47 1.50 1.59 1.72 1.74 1.50 1.66 1.99 1.63 1.12 0.84 0.77 0.69 0.63 0.64 0.65 0.71
1.97 2.34 2.86 3.22 3.22 3.74 4.43 4.48 4.12 3.82 3.33 2.92 2.73 2.56 2.46 2.17 1.99 1.85 1.82 1.64 1.49 1.45 1.43 1.44 1.31 1.28 1.37 1.36 1.42 1.55 1.54 1.38 1.59 1.91 1.99 1.55 1.20 0.92 0.64 0.59 0.59 0.66 0.79
1.85 2.28 2.68 3.08 3.03 3.39 3.50 3.10 2.88 2.87 2.79 2.59 2.48 2.37 2.32 2.14 1.84 1.56 1.50 1.45 1.27 1.22 1.16 1.15 1.18 1.25 1.15 1.22 1.31 1.46 1.61 1.48 1.38 1.62 1.90 1.70 1.38 1.12 0.83 0.73 0.82 0.93 1.03
1.31 1.57 1.89 2.31 2.50 2.56 2.49 2.41 2.34 2.31 2.47 2.48 2.26 2.06 1.74 1.59 1.49 1.35 1.34 1.36 1.23 1.16 1.06 1.04 1.16 1.22 1.18 1.29 1.11 1.19 1.43 1.56 1.36 1.36 1.42 1.43 1.53 1.53 1.19 0.87 0.81 0.93 1.01
0.94 1.08 1.20 1.41 1.69 1.92 1.96 1.91 2.14 2.21 2.21 2.19 2.13 2.10 1.83 1.61 1.50 1.57 1.72 1.60 1.35 1.13 1.01 1.02 1.10 1.17 1.17 1.22 1.21 1.28 1.24 1.28 1.24 1.24 1.26 1.35 1.48 1.43 1.38 1.17 0.96 0.93 0.82
0.73 0.88 0.95 0.99 1.12 1.26 1.36 1.47 1.70 1.90 1.96 1.91 1.91 1.93 1.87 1.76 1.51 1.43 1.46 1.37 1.25 1.11 1.01 1.03 1.15 1.14 1.10 1.10 1.13 1.17 1.14 1.19 1.22 1.21 1.22 1.32 1.31 1.27 1.40 1.31 1.10 1.03 0.85
0.53 0.63 0.70 0.78 0.86 0.88 0.95 1.11 1.30 1.46 1.59 1.65 1.67 1.72 1.86 1.75 1.50 1.29 1.29 1.23 1.09 1.00 0.99 0.99 1.17 1.26 1.22 1.16 1.18 1.20 1.22 1.28 1.29 1.22 1.22 1.27 1.25 1.28 1.41 1.41 1.19 1.11 1.02
0.45 0.44 0.48 0.53 0.66 0.67 0.73 0.84 0.93 1.04 1.17 1.39 1.57 1.53 1.60 1.46 1.32 1.39 1.29 1.13 0.94 0.95 1.13 1.21 1.23 1.25 1.29 1.28 1.42 1.34 1.32 1.39 1.39 1.29 1.45 1.44 1.29 1.42 1.54 1.64 1.67 1.49 1.39
0.43 0.38 0.37 0.41 0.44 0.46 0.49 0.58 0.74 0.94 1.02 1.12 1.33 1.42 1.35 1.30 1.35 1.43 1.36 1.22 1.11 1.01 1.14 1.24 1.34 1.33 1.31 1.36 1.52 1.51 1.53 1.59 1.52 1.50 1.65 1.62 1.53 1.53 1.52 1.70 1.89 1.95 1.80
0.44 0.49 0.36 0.36 0.38 0.35 0.40 0.53 0.67 0.89 1.08 1.09 1.07 1.11 1.28 1.31 1.40 1.40 1.23 1.17 1.13 1.10 1.12 1.11 1.19 1.22 1.22 1.33 1.56 1.58 1.63 1.77 1.75 1.72 1.76 1.75 1.69 1.75 1.70 1.74 1.93 2.08 2.09
0.39 0.43 0.32 0.27 0.32 0.35 0.42 0.53 0.65 0.91 1.08 1.00 1.01 1.10 1.24 1.29 1.31 1.43 1.38 1.26 1.18 1.15 1.11 1.07 1.10 1.10 1.08 1.17 1.34 1.48 1.65 1.79 1.84 1.80 1.81 1.81 1.89 1.92 1.80 1.84 1.89 2.01 2.15
0.40 0.43 0.39 0.40 0.41 0.46 0.51 0.62 0.69 0.83 0.94 0.97 1.03 1.10 1.18 1.22 1.18 1.22 1.27 1.31 1.21 1.13 1.14 1.16 1.14 1.04 1.03 1.13 1.29 1.44 1.63 1.79 1.89 1.94 1.98 1.83 1.87 1.97 1.93 1.91 1.91 1.96 2.17
0.55 0.51 0.52 0.57 0.51 0.53 0.65 0.73 0.80 0.83 0.93 1.09 1.08 1.03 1.07 1.01 1.01 1.05 1.10 1.18 1.22 1.24 1.23 1.22 1.18 1.16 1.23 1.36 1.44 1.50 1.64 1.80 1.88 1.93 1.92 1.90 1.97 1.90 1.94 1.98 1.95 1.92 1.91
0.53 0.46 0.48 0.51 0.54 0.59 0.65 0.72 0.81 0.86 0.94 0.96 0.96 0.96 0.95 0.94 1.00 1.05 1.07 1.10 1.13 1.21 1.24 1.22 1.29 1.34 1.39 1.44 1.46 1.46 1.51 1.61 1.68 1.68 1.62 1.58 1.64 1.70 1.79 1.78 1.77 1.80 1.83
0.50 0.40 0.36 0.47 0.58 0.65 0.65 0.71 0.79 0.87 0.99 1.00 0.93 0.88 0.90 0.93 0.96 0.97 1.00 1.03 1.09 1.12 1.29 1.34 1.44 1.52 1.50 1.40 1.43 1.44 1.37 1.52 1.48 1.39 1.37 1.39 1.47 1.48 1.53 1.47 1.52 1.64 1.71
0.50 0.48 0.45 0.53 0.59 0.60 0.60 0.58 0.61 0.72 0.86 0.91 0.95 0.98 0.96 0.90 0.95 0.99 0.99 1.03 1.12 1.24 1.35 1.40 1.52 1.55 1.42 1.47 1.50 1.49 1.46 1.50 1.47 1.42 1.37 1.27 1.26 1.23 1.25 1.29 1.35 1.46 1.57
0.44 0.51 0.53 0.56 0.57 0.56 0.53 0.52 0.52 0.62 0.82 0.93 0.94 1.03 1.12 1.03 1.10 1.14 1.14 1.16 1.23 1.34 1.40 1.52 1.56 1.56 1.61 1.54 1.42 1.44 1.38 1.43 1.47 1.51 1.51 1.27 1.11 1.17 1.17 1.29 1.27 1.24 1.28
0.41 0.47 0.47 0.48 0.51 0.51 0.52 0.50 0.52 0.60 0.80 0.96 1.00 1.16 1.31 1.22 1.25 1.27 1.29 1.36 1.43 1.47 1.58 1.63 1.56 1.57 1.61 1.52 1.29 1.21 1.12 1.20 1.31 1.40 1.45 1.44 1.34 1.31 1.33 1.39 1.37 1.28 1.25
0.44 0.43 0.47 0.48 0.50 0.54 0.54 0.57 0.69 0.80 0.92 1.04 1.15 1.32 1.48 1.55 1.53 1.50 1.59 1.65 1.68 1.73 1.81 1.88 1.85 1.76 1.72 1.53 1.20 1.08 1.01 1.13 1.18 1.21 1.23 1.24 1.16 1.15 1.09 1.14 1.21 1.23 1.22
0.46 0.50 0.57 0.57 0.54 0.60 0.63 0.68 0.83 1.02 1.14 1.17 1.19 1.29 1.47 1.57 1.61 1.62 1.78 1.94 1.98 1.98 2.01 1.92 1.80 1.71 1.69 1.60 1.29 1.12 1.09 1.22 1.26 1.33 1.32 1.30 1.24 1.18 1.04 1.03 1.10 1.09 1.11
0.49 0.52 0.56 0.63 0.66 0.72 0.80 0.91 0.99 1.09 1.12 1.12 1.15 1.23 1.46 1.74 1.78 1.84 1.92 2.03 2.10 2.15 2.17 2.07 1.97 1.85 1.79 1.75 1.41 1.24 1.20 1.30 1.36 1.30 1.31 1.28 1.25 1.05 0.93 0.92 0.97 0.98 0.99
0.53 0.53 0.54 0.60 0.68 0.78 0.93 1.01 1.04 1.07 1.13 1.14 1.20 1.32 1.57 1.67 1.77 1.93 1.98 2.13 2.25 2.26 2.23 2.23 2.09 2.03 1.94 1.69 1.40 1.20 1.20 1.31 1.42 1.42 1.39 1.35 1.20 0.96 0.84 0.74 0.72 0.75 0.75
0.58 0.62 0.60 0.64 0.70 0.81 1.00 1.14 1.13 1.14 1.14 1.13 1.17 1.27 1.41 1.51 1.65 1.73 1.71 1.80 1.93 1.95 1.99 2.02 1.98 1.99 2.08 1.95 1.53 1.24 1.17 1.25 1.37 1.50 1.58 1.38 1.19 1.04 0.90 0.84 0.75 0.68 0.65
0.70 0.69 0.66 0.68 0.72 0.78 0.96 1.11 1.12 1.13 1.13 1.08 1.05 1.14 1.32 1.40 1.47 1.59 1.60 1.70 1.77 1.83 1.91 1.93 1.89 1.89 2.04 2.04 1.74 1.43 1.24 1.17 1.16 1.21 1.24 1.16 1.10 0.99 0.88 0.80 0.71 0.63 0.66
0.60 0.60 0.61 0.65 0.68 0.74 0.91 1.05 1.08 1.10 1.14 1.10 1.06 1.13 1.24 1.34 1.42 1.53 1.62 1.65 1.68 1.66 1.69 1.73 1.71 1.71 1.83 1.82 1.59 1.39 1.25 1.15 1.14 1.16 1.21 1.20 1.19 1.08 0.99 0.91 0.86 0.85 0.86
0.57 0.60 0.63 0.64 0.62 0.67 0.77 0.87 1.04 1.20 1.26 1.18 1.10 1.09 1.10 1.18 1.26 1.34 1.35 1.28 1.26 1.25 1.23 1.27 1.21 1.19 1.36 1.36 1.13 1.00 1.03 1.04 1.01 1.04 1.12 1.19 1.22 1.18 1.11 1.06 1.00 1.00 0.97